Weather Roundup
Issued by NWS

Home | Current Version | Previous Version | Graphics & Text | Print | Product List | Glossary Off
Versions: 1 2 3 4 5 6 7 8 9 10 11 12 13 14 15 16 17 18 19 20 21 22 23 24 25 26 27 28 29 30 31 32 33 34 35 36 37 38 39 40 41 42 43 44 45 46 47 48 49 50

000
NZUS93 KARX 262110
HRRWXR

CURRENT HOURLY OBSERVATIONS ACROSS
MUCH OF THE UPPER MISSISSIPPI VALLEY
NATIONAL WEATHER SERVICE LA CROSSE WI
400 PM CDT THU MAR 26 2015


...SOUTHEAST MINNESOTA...


CITY           SKY/WX    TMP DP  RH WIND       PRES   REMARKS
ROCHESTER      CLOUDY    31  21  66 NW16      30.07S WCI  20
ROCHESTER/MAYO CLOUDY    32  20  61 W14G21    30.06F WCI  22
WINONA         CLOUDY    36  21  55 NW17      30.07S WCI  25
AUSTIN         CLOUDY    30  19  64 NW14G22   30.08F WCI  20
ALBERT LEA     MOSUNNY   34  23  64 NW14      30.09S WCI  24
DODGE CENTER   CLOUDY    32  19  59 NW15      30.07F WCI  22
PRESTON        CLOUDY    31  20  62 NW15      30.06F WCI  20
OWATONNA       CLOUDY    32  21  64 NW16      30.10S WCI  21
FARIBAULT      CLOUDY    34  19  55 NW10      30.10S WCI  26
$$

...ELSEWHERE IN MINNESOTA...


CITY           SKY/WX    TMP DP  RH WIND       PRES   REMARKS
MINNEAPOLIS    CLOUDY    35  16  45 NW20G25   30.10S WCI  24
INTNL FALLS    SUNNY     26   3  37 N9        30.17S WCI  17
DULUTH         MOSUNNY   29   4  34 N15G22    30.08S WCI  18
RED WING       CLOUDY    36  16  44 N7G16     30.08S WCI  30
REDWOOD FALLS  CLOUDY    33  20  58 N9G20     30.15S WCI  25
MANKATO        CLOUDY    32  18  55 NW13G24   30.12S WCI  22
WORTHINGTON    PTSUNNY   36  19  51 N16G23    30.12F WCI  26
FAIRMONT       CLOUDY    36  19  51 NW18      30.10S WCI  25
$$

...SOUTHWEST WISCONSIN...


CITY           SKY/WX    TMP DP  RH WIND       PRES   REMARKS
LA CROSSE      CLOUDY    38  19  46 NW12      30.05S WCI  30
PRAIRIE DU CHI CLOUDY    34  21  59 NW16      30.06S WCI  23
BOSCOBEL       CLOUDY    36  20  52 NW9G20    30.05R WCI  29
LONE ROCK      CLOUDY    38  19  46 NW14G21   30.02R WCI  30
PLATTEVILLE    CLOUDY    35  24  65 NW14      30.02R WCI  26
FORT MC COY    CLOUDY    34  18  52 NW13G21   30.05R WCI  25
CAMP DOUGLAS   CLOUDY    36  18  48 NW14G20   30.00S WCI  27
VIROQUA        CLOUDY    32  21  65 NW14      30.02S WCI  22
WIS DELLS      CLOUDY    35  17  48 NW13G21   29.99R WCI  26
$$

...ELSEWHERE IN WISCONSIN...


CITY           SKY/WX    TMP DP  RH WIND       PRES   REMARKS
MILWAUKEE      CLOUDY    36  18  48 NW14      29.97R WCI  27
MADISON        CLOUDY    36  19  50 NW13G20   29.99R WCI  27
GREEN BAY      CLOUDY    32  21  64 N15       29.98R WCI  22
EAU CLAIRE     CLOUDY    33  13  43 NW13      30.06S WCI  24
BLACK RVR FLS  CLOUDY    34  15  46 NW13      30.04S WCI  25
MEDFORD        CLOUDY    27  14  59 N10       30.01R WCI  17
WAUSAU         CLOUDY    29  14  53 N14G23    29.98R WCI  18
WIS RAPIDS     CLOUDY    32  14  47 N14G25    30.02S WCI  22
MARSHFIELD     CLOUDY    30  17  58 NW15G24   30.01R WCI  19
RICE LAKE      CLOUDY    32  13  45 N9        30.07S WCI  24
$$

...NORTHEAST IOWA...


CITY           SKY/WX    TMP DP  RH WIND       PRES   REMARKS
DECORAH        CLOUDY    32  21  64 NW9G16    30.06R WCI  24
MASON CITY     MOSUNNY   37  22  54 NW21      30.09F WCI  26
CHARLES CITY   PTSUNNY   36  25  64 N15G22    30.09S WCI  26
OELWEIN        MOSUNNY   36  23  60 NW20G26   30.08S WCI  25
$$

...ELSEWHERE IN IOWA...


CITY           SKY/WX    TMP DP  RH WIND       PRES   REMARKS
DES MOINES     CLOUDY    45  22  40 N16G22    30.09F
IOWA CITY      SUNNY     46  20  35 NW23G31   30.05F
FORT DODGE     CLOUDY    39  23  52 NW8G20    30.11F WCI  34
$$

...NORTHERN ILLINOIS...


CITY           SKY/WX    TMP DP  RH WIND       PRES   REMARKS
CHICAGO-OHARE  CLOUDY    40  24  53 NW17      29.96R WCI  31
CHICAGO-MIDWAY PTSUNNY   43  22  43 NW14      29.97R
MOLINE         SUNNY     47  22  37 W17G31    30.01F
ROCKFORD       CLOUDY    39  21  48 NW14      30.01R WCI  31
PEORIA         SUNNY     49  23  36 NW13G22   30.01S
$$

NOTE: "FAIR" INDICATES FEW OR NO CLOUDS BELOW 12,000 FEET WITH NO
SIGNIFICANT WEATHER AND/OR OBSTRUCTIONS TO VISIBILITY. WIND
SPEEDS ARE IN MILES-PER-HOUR.



USA.gov is the U.S. government's official web portal to all federal, state and local government web resources and services.